TimePST,TemperatureF,Dew PointF,Humidity,Sea Level PressureIn,VisibilityMPH,Wind Direction,Wind SpeedMPH,Gust SpeedMPH,PrecipitationIn,Events,Conditions,WindDirDegrees,DateUTC
12:53 AM,37.0,19.9,50,30.08,10.0,West,5.8,-,N/A,,Clear,260,2013-01-03 08:53:00
1:53 AM,37.0,19.9,50,30.08,10.0,WSW,6.9,-,N/A,,Clear,250,2013-01-03 09:53:00
2:53 AM,35.1,19.9,54,30.07,10.0,West,5.8,-,N/A,,Clear,260,2013-01-03 10:53:00
3:53 AM,35.1,19.9,54,30.08,10.0,West,5.8,-,N/A,,Clear,270,2013-01-03 11:53:00
4:53 AM,34.0,19.9,56,30.09,10.0,Calm,Calm,-,N/A,,Clear,0,2013-01-03 12:53:00
5:53 AM,34.0,21.0,59,30.11,10.0,WSW,5.8,-,N/A,,Clear,250,2013-01-03 13:53:00
6:53 AM,35.1,19.0,52,30.14,10.0,WSW,6.9,-,N/A,,Clear,240,2013-01-03 14:53:00
7:53 AM,39.0,23.0,53,30.17,10.0,West,6.9,-,N/A,,Clear,260,2013-01-03 15:53:00
8:53 AM,48.9,26.1,41,30.19,10.0,WSW,3.5,-,N/A,,Clear,250,2013-01-03 16:53:00
9:53 AM,57.0,25.0,29,30.20,10.0,East,6.9,-,N/A,,Clear,80,2013-01-03 17:53:00
10:53 AM,62.1,17.1,18,30.19,10.0,ENE,6.9,-,N/A,,Clear,60,2013-01-03 18:53:00
11:53 AM,64.0,12.9,14,30.17,10.0,NNE,6.9,-,N/A,,Clear,20,2013-01-03 19:53:00
12:53 PM,64.0,12.9,14,30.14,10.0,NNW,5.8,-,N/A,,Clear,330,2013-01-03 20:53:00
1:53 PM,64.9,14.0,14,30.14,10.0,North,9.2,-,N/A,,Clear,360,2013-01-03 21:53:00
2:53 PM,64.9,12.9,13,30.14,10.0,NNW,9.2,-,N/A,,Clear,340,2013-01-03 22:53:00
3:53 PM,64.0,10.9,13,30.15,10.0,NE,10.4,-,N/A,,Clear,50,2013-01-03 23:53:00
4:53 PM,60.1,12.9,16,30.16,10.0,NNE,6.9,-,N/A,,Clear,20,2013-01-04 00:53:00
5:53 PM,55.9,12.9,18,30.17,10.0,NE,5.8,-,N/A,,Clear,40,2013-01-04 01:53:00
6:53 PM,48.0,17.1,29,30.19,10.0,WNW,4.6,-,N/A,,Clear,290,2013-01-04 02:53:00
7:53 PM,43.0,18.0,37,30.19,10.0,WSW,5.8,-,N/A,,Clear,250,2013-01-04 03:53:00
8:53 PM,42.1,19.0,40,30.21,10.0,West,3.5,-,N/A,,Clear,280,2013-01-04 04:53:00
9:53 PM,39.9,17.1,40,30.22,10.0,WSW,6.9,-,N/A,,Clear,240,2013-01-04 05:53:00
10:53 PM,39.0,18.0,43,30.22,10.0,Variable,4.6,-,N/A,,Clear,0,2013-01-04 06:53:00
11:53 PM,39.0,16.0,39,30.22,10.0,WSW,6.9,-,N/A,,Clear,250,2013-01-04 07:53:00